TimeCEST,TemperatureF,Dew PointF,Humidity,Sea Level PressureIn,VisibilityMPH,Wind Direction,Wind SpeedMPH,Gust SpeedMPH,PrecipitationIn,Events,Conditions,WindDirDegrees,DateUTC
12:45 AM,48.2,42.8,82,29.95,-9999.0,West,9.2,-,N/A,,Clear,270,2013-09-19 22:45:00
1:45 AM,50.0,42.8,76,29.98,-9999.0,WNW,10.4,-,N/A,,Clear,290,2013-09-19 23:45:00
2:00 AM,49,44,75,29.97,31,WNW,8.9,,,,Partly Cloudy,290,2013-09-20 00:00:00
2:45 AM,48.2,42.8,82,29.98,-9999.0,West,8.1,-,N/A,,Clear,280,2013-09-20 00:45:00
3:45 AM,46.4,42.8,87,29.98,-9999.0,West,9.2,-,N/A,,Clear,280,2013-09-20 01:45:00
4:45 AM,46.4,41.0,81,29.98,-9999.0,West,8.1,-,N/A,,Clear,280,2013-09-20 02:45:00
5:45 AM,46.4,41.0,81,29.98,-9999.0,West,8.1,-,N/A,,Clear,270,2013-09-20 03:45:00
6:15 AM,44.6,41.0,87,29.98,-9999.0,West,9.2,-,N/A,,Clear,270,2013-09-20 04:15:00
6:45 AM,44.6,41.0,87,30.01,-9999.0,WNW,5.8,-,N/A,,Clear,290,2013-09-20 04:45:00
7:15 AM,46.4,42.8,87,30.01,-9999.0,WNW,3.5,-,N/A,,Clear,300,2013-09-20 05:15:00
7:45 AM,48.2,42.8,82,30.01,-9999.0,WNW,5.8,-,N/A,,Clear,290,2013-09-20 05:45:00
8:00 AM,49,43,74,30.01,28,WNW,6.7,,,,Partly Cloudy,290,2013-09-20 06:00:00
8:15 AM,51.8,44.6,76,30.01,-9999.0,WNW,9.2,-,N/A,,Clear,290,2013-09-20 06:15:00
8:45 AM,53.6,44.6,72,30.01,-9999.0,WNW,9.2,-,N/A,,Clear,300,2013-09-20 06:45:00
9:15 AM,55.4,44.6,67,30.04,-9999.0,WNW,10.4,-,N/A,,Clear,290,2013-09-20 07:15:00
9:45 AM,57.2,44.6,63,30.04,-9999.0,WNW,10.4,-,N/A,,Clear,300,2013-09-20 07:45:00
10:15 AM,59.0,46.4,63,30.04,-9999.0,WNW,9.2,-,N/A,,Clear,300,2013-09-20 08:15:00
10:45 AM,60.8,44.6,55,30.04,-9999.0,NW,10.4,-,N/A,,Clear,320,2013-09-20 08:45:00
11:15 AM,60.8,42.8,52,30.04,6.2,NW,11.5,-,N/A,,Partly Cloudy,310,2013-09-20 09:15:00
11:45 AM,62.6,42.8,48,30.04,6.2,NW,12.7,-,N/A,,Partly Cloudy,320,2013-09-20 09:45:00
12:15 PM,64.4,41.0,42,30.04,6.2,NW,11.5,-,N/A,,Scattered Clouds,310,2013-09-20 10:15:00
12:45 PM,64.4,41.0,42,30.04,6.2,WNW,11.5,-,N/A,,Scattered Clouds,300,2013-09-20 10:45:00
1:15 PM,66.2,41.0,40,30.04,-9999.0,NNW,10.4,-,N/A,,Clear,330,2013-09-20 11:15:00
1:45 PM,64.4,41.0,42,30.04,-9999.0,WNW,11.5,-,N/A,,Clear,300,2013-09-20 11:45:00
2:00 PM,64,41,32,30.02,47,WNW,11.2,,,,Partly Cloudy,300,2013-09-20 12:00:00
2:15 PM,64.4,41.0,42,30.04,-9999.0,WNW,12.7,-,N/A,,Clear,290,2013-09-20 12:15:00
2:45 PM,66.2,44.6,46,30.01,-9999.0,NW,11.5,-,N/A,,Clear,320,2013-09-20 12:45:00
3:15 PM,64.4,42.8,45,30.01,-9999.0,WNW,16.1,-,N/A,,Clear,300,2013-09-20 13:15:00
3:45 PM,66.2,44.6,46,30.01,-9999.0,WNW,12.7,-,N/A,,Clear,300,2013-09-20 13:45:00
4:15 PM,66.2,42.8,43,30.01,-9999.0,West,13.8,-,N/A,,Clear,280,2013-09-20 14:15:00
4:45 PM,64.4,44.6,49,30.04,-9999.0,WNW,11.5,-,N/A,,Clear,290,2013-09-20 14:45:00
5:15 PM,64.4,42.8,45,30.04,-9999.0,WNW,9.2,-,N/A,,Clear,290,2013-09-20 15:15:00
5:45 PM,64.4,44.6,49,30.04,6.2,WNW,6.9,-,N/A,,Partly Cloudy,300,2013-09-20 15:45:00
6:15 PM,62.6,42.8,48,30.04,-9999.0,West,3.5,-,N/A,,Clear,280,2013-09-20 16:15:00
6:45 PM,59.0,44.6,59,30.04,-9999.0,SW,3.5,-,N/A,,Clear,230,2013-09-20 16:45:00
7:15 PM,57.2,46.4,67,30.04,-9999.0,South,3.5,-,N/A,,Clear,180,2013-09-20 17:15:00
7:45 PM,57.2,46.4,67,30.04,-9999.0,South,3.5,-,N/A,,Clear,170,2013-09-20 17:45:00
8:00 PM,58,46,56,30.04,28,South,4.5,,,,Partly Cloudy,170,2013-09-20 18:00:00
8:15 PM,57.2,46.4,67,30.04,-9999.0,South,3.5,-,N/A,,Clear,170,2013-09-20 18:15:00
8:45 PM,57.2,46.4,67,30.04,-9999.0,South,3.5,-,N/A,,Clear,180,2013-09-20 18:45:00
9:15 PM,57.2,46.4,67,30.06,-9999.0,South,4.6,-,N/A,,Clear,190,2013-09-20 19:15:00
9:45 PM,57.2,48.2,72,30.06,-9999.0,South,3.5,-,N/A,,Clear,180,2013-09-20 19:45:00
10:39 PM,55.4,50.0,82,30.06,6.2,NNW,4.6,-,N/A,Rain,Light Rain,330,2013-09-20 20:39:00
10:45 PM,55.4,50.0,82,30.06,6.2,NNW,4.6,-,N/A,Rain,Light Rain,330,2013-09-20 20:45:00
11:45 PM,57.2,50.0,77,30.06,-9999.0,NNW,5.8,-,N/A,,Clear,340,2013-09-20 21:45:00